X Fechar
foto
Salvar nos Favoritos

X Fechar
foto
Clique e saiba mais
Clique e saiba mais
Clique e saiba mais
Clique e saiba mais
Clique e saiba mais
Clique e saiba mais
Clique e saiba mais

América Sports

Capacete Companhia

Edgers Racing

KTM Sacramento

Toro Sports

Pro Tech

JPS Racing

MotoX Pneus

JP Motos

Clique e saiba mais

> Notícias > Últimas Notícias

Mundial de Motocross: Resultados e vídeos do MXGP da Grã-Bretanha
Publicado em: 24/03/2019

Antonio Cairoli e Thomas Kjer Olsen vencem segunda etapa do Mundial de Motocross 2019
Redação MotoX.com.br: Lucidio Arruda - Fotos: Ray Archer / Bavo Swijgers / J. P. Acevedo


Largada MXGP

Antonio Cairoli conquistou o segundo GP consecutivo na temporada. O italiano aproveitou-se de uma queda de Tim Gajser na primeira bateria para cruzar na frente. A queda do esloveno, quando ocupava a liderança, foi forte, mas de qualquer modo ele levantou e seguiu a corrida em bom ritmo para completar em terceiro, atrás de Gautier Paulin.

Na segunda Bateria Cairoli fez um novo holeshot, para ser superado por Gajser ainda no início. Durante a maior parte da corrida o italiano permaneceu a 5 segundos de Gajser, mas nas últimas voltas apertou o passo para tentar o bote no finalzinho. Gajser respondeu e a diferença entre os dois na bandeirada foi de 1,7 segundo. O ritmo dos dois foi forte? Foi, abriram mais de 50 segundos de Paulin, o terceiro colocado.


Tim Gajser

Vídeo





Resultados

P. # MXGP Bateria 1 Nat. Bike Time laps Dif Gap M.V inlap Vel
1 222 Cairoli, Antonio ITA KTM 36:37.831 14 0:00.000 0:00.000 2:25.182 4 48.3
2 21 Paulin, Gautier FRA Yam 36:39.787 14 0:01.956 0:01.956 2:25.863 2 48.1
3 243 Gajser, Tim SLO Hon 36:42.304 14 0:04.473 0:02.517 2:24.188 2 48.6
4 25 Desalle, Clement BEL Kaw 37:02.124 14 0:24.293 0:19.820 2:26.872 3 47.7
5 89 Van Horebeek, Jeremy BEL Hon 37:04.102 14 0:26.271 0:01.978 2:27.874 7 47.4
6 4 Tonus, Arnaud SUI Yam 37:05.449 14 0:27.618 0:01.347 2:27.713 4 47.5
7 99 Anstie, Max GBR KTM 37:22.938 14 0:45.107 0:17.489 2:28.194 3 47.3
8 91 Seewer, Jeremy SUI Yam 37:24.514 14 0:46.683 0:01.576 2:28.577 6 47.2
9 27 Jasikonis, Arminas LTU Hus 37:27.506 14 0:49.675 0:02.992 2:28.607 4 47.2
10 33 Lieber, Julien BEL Kaw 37:34.102 14 0:56.271 0:06.596 2:27.993 5 47.4
11 100 Searle, Tommy GBR Kaw 37:44.593 14 1:06.762 0:10.491 2:29.034 9 47.1
12 259 Coldenhoff, Glenn NED KTM 37:46.374 14 1:08.543 0:01.781 2:28.773 4 47.1
13 7 Leok, Tanel EST Hus 37:47.752 14 1:09.921 0:01.378 2:29.987 12 46.8
14 41 Jonass, Pauls LAT Hus 37:48.844 14 1:11.013 0:01.092 2:29.293 6 47
15 111 Ferris, Dean AUS Yam 37:49.184 14 1:11.353 0:00.340 2:28.186 13 47.3
16 24 Simpson, Shaun GBR KTM 38:02.265 14 1:24.434 0:13.081 2:28.172 5 47.3
17 297 Gole, Anton SWE Yam 38:03.935 14 1:26.104 0:01.670 2:30.298 12 46.7
18 911 Tixier, Jordi FRA KTM 38:08.857 14 1:31.026 0:04.922 2:29.494 5 46.9
19 151 Kullas, Harri EST Hon 38:14.052 14 1:36.221 0:05.195 2:29.943 5 46.8
20 152 Petrov, Petar BUL KTM 38:19.735 14 1:41.904 0:05.683 2:29.550 5 46.9
21 189 Bogers, Brian NED Hon 38:24.945 14 1:47.114 0:05.210 2:30.391 3 46.6
22 17 Butron, Jose ESP KTM 38:34.017 14 1:56.186 0:09.072 2:31.497 10 46.3
23 128 Monticelli, Ivo ITA KTM 38:38.518 14 2:00.687 0:04.501 2:28.431 2 47.2
24 83 Renkens, Nathan BEL KTM 38:48.759 14 2:10.928 0:10.241 2:33.615 11 45.6
25 92 Valentin, Ander ESP Hus 38:51.464 14 2:13.633 0:02.705 2:33.033 12 45.8
26 803 Millward, Jake GBR Hus 38:54.926 14 2:17.095 0:03.462 2:34.638 11 45.3
27 34 De Waal, Micha-Boy NED Yam 38:59.731 14 2:21.900 0:04.805 2:33.549 5 45.7
28 291 Karro, Matiss LAT Hus 39:02.374 14 2:24.543 0:02.643 2:32.652 1 45.9
29 93 Bengtsson, Jonathan SWE KTM 39:03.313 14 2:25.482 0:00.939 2:33.071 14 45.8
30 94 Van der Mierden, Sven NED Yam 39:03.580 14 2:25.749 0:00.267 2:31.294 14 46.3
31 471 Tarasov, Volodymyr UKR KTM 36:53.772 13 1 lap 1 lap 2:35.958 8 45
32 226 Koch, Tom GER KTM 36:55.903 13 1 lap 0:02.131 2:36.691 2 44.8
33 321 Bernardini, Samuele ITA Yam 37:07.286 13 1 lap 0:11.383 2:33.423 4 45.7
34 555 Guryev, Artem RUS Hus 37:50.934 13 1 lap 0:43.648 2:38.453 2 44.3
35 77 Lupino, Alessandro ITA Kaw 14:54.081 5 9 laps 8 laps 2:28.485 5 47.2

P. # MXGP Bateria 2 Nat. Bike Time laps Dif Gap M.V inlap Vel
1 243 Gajser, Tim SLO Hon 36:01.717 14 0:00.000 0:00.000 2:23.647 14 48.8
2 222 Cairoli, Antonio ITA KTM 36:03.426 14 0:01.709 0:01.709 2:23.305 13 48.9
3 21 Paulin, Gautier FRA Yam 36:55.921 14 0:54.204 0:52.495 2:26.271 3 47.9
4 27 Jasikonis, Arminas LTU Hus 36:59.354 14 0:57.637 0:03.433 2:26.917 3 47.7
5 91 Seewer, Jeremy SUI Yam 37:02.281 14 1:00.564 0:02.927 2:27.622 8 47.5
6 89 Van Horebeek, Jeremy BEL Hon 37:07.701 14 1:05.984 0:05.420 2:27.128 2 47.7
7 25 Desalle, Clement BEL Kaw 37:22.102 14 1:20.385 0:14.401 2:26.333 4 47.9
8 259 Coldenhoff, Glenn NED KTM 37:23.788 14 1:22.071 0:01.686 2:28.104 7 47.3
9 24 Simpson, Shaun GBR KTM 37:28.414 14 1:26.697 0:04.626 2:29.388 3 46.9
10 128 Monticelli, Ivo ITA KTM 37:29.974 14 1:28.257 0:01.560 2:28.125 11 47.3
11 41 Jonass, Pauls LAT Hus 37:30.804 14 1:29.087 0:00.830 2:28.881 3 47.1
12 911 Tixier, Jordi FRA KTM 37:32.014 14 1:30.297 0:01.210 2:28.107 6 47.3
13 77 Lupino, Alessandro ITA Kaw 37:42.831 14 1:41.114 0:10.817 2:28.111 6 47.3
14 99 Anstie, Max GBR KTM 37:44.521 14 1:42.804 0:01.690 2:27.920 13 47.4
15 100 Searle, Tommy GBR Kaw 37:53.338 14 1:51.621 0:08.817 2:28.841 11 47.1
16 7 Leok, Tanel EST Hus 37:55.779 14 1:54.062 0:02.441 2:28.996 4 47.1
17 151 Kullas, Harri EST Hon 37:57.932 14 1:56.215 0:02.153 2:29.752 7 46.8
18 297 Gole, Anton SWE Yam 38:00.983 14 1:59.266 0:03.051 2:30.700 6 46.5
19 17 Butron, Jose ESP KTM 38:03.340 14 2:01.623 0:02.357 2:30.626 5 46.6
20 33 Lieber, Julien BEL Kaw 38:21.279 14 2:19.562 0:17.939 2:30.208 5 46.7
21 152 Petrov, Petar BUL KTM 38:23.142 14 2:21.425 0:01.863 2:31.661 11 46.2
22 189 Bogers, Brian NED Hon 38:23.670 14 2:21.953 0:00.528 2:30.155 2 46.7
23 83 Renkens, Nathan BEL KTM 38:29.095 14 2:27.378 0:05.425 2:31.875 10 46.2
24 94 Van der Mierden, Sven NED Yam 36:28.213 13 1 lap 1 lap 2:33.743 4 45.6
25 321 Bernardini, Samuele ITA Yam 36:29.922 13 1 lap 0:01.709 2:33.861 8 45.6
26 93 Bengtsson, Jonathan SWE KTM 36:31.872 13 1 lap 0:01.950 2:34.578 3 45.4
27 226 Koch, Tom GER KTM 36:40.443 13 1 lap 0:08.571 2:35.082 12 45.2
28 34 De Waal, Micha-Boy NED Yam 37:11.663 13 1 lap 0:31.220 2:34.517 5 45.4
29 471 Tarasov, Volodymyr UKR KTM 37:21.135 13 1 lap 0:09.472 2:35.083 3 45.2
30 555 Guryev, Artem RUS Hus 37:54.261 13 1 lap 0:33.126 2:36.622 4 44.8
31 803 Millward, Jake GBR Hus 38:37.439 13 1 lap 0:43.178 2:35.493 5 45.1
32 4 Tonus, Arnaud SUI Yam 22:58.442 8 6 laps 5 laps 2:27.844 4 47.4
33 92 Valentin, Ander ESP Hus 13:07.359 4 10 laps 4 laps 2:35.034 2 45.2
34 291 Karro, Matiss LAT Hus 2:32.623 0 14 laps 4 laps 0:00.000   0
35 111 Ferris, Dean AUS Yam 0:00.000 -1 15 laps 1 lap 0:00.000   0

Resultado do GP
1. Antonio Cairoli, 47
2. Tim Gajser, 45
3. Gautier Paulin, 42
4. Clement Desalle, 32
5. Jeremy van Horebeek, 31

MX2 - Olsen vence e assume a liderança do campeonato


Thomas Kjer Olsen

Sem o atual campeão e líder do campeonato na pista, o domingo foi todo de Thomas Kjer Olsen na classe MX2. O piloto dinamarquês venceu as duas baterias, a frente de Jacobi Henry e Calvin Vlaanderen, na primeira e segunda baterias, respectivamente.

Quem deixou boa impressão foi o francês Tom Vialle, que largou as duas baterias na frente e conquistou seu primeiro pódio no Mundial via 3-4 nas baterias. É apenas o segundo GP do piloto contratado pela equipe oficial KTM.

O brasileiro Gustavo Pessoa fez bonito com a 14ª posição na primeira bateria. Na segunda largou em 15ª e avançou para 13º na segunda volta, mas aparentemente caiu na terceira volta e completou a corrida em 25º.

Resultados

P. # MX2 Bateria 1 Nat. Bike Time laps Dif Gap M.V inlap Vel
1 19 Olsen, Thomas Kjer DEN Hus 35:01.449 13 0:00.000 0:00.000 2:28.726 13 47.2
2 29 Jacobi, Henry GER Kaw 35:05.727 13 0:04.278 0:04.278 2:27.784 12 47.5
3 28 Vialle, Tom FRA KTM 35:17.609 13 0:16.160 0:11.882 2:30.435 8 46.6
4 919 Watson, Ben GBR Yam 35:29.949 13 0:28.500 0:12.340 2:29.768 13 46.8
5 747 Cervellin, Michele ITA Yam 35:31.628 13 0:30.179 0:01.679 2:30.854 9 46.5
6 426 Mewse, Conrad GBR KTM 35:36.720 13 0:35.271 0:05.092 2:29.215 10 47
7 46 Pootjes, Davy NED Hus 35:37.467 13 0:36.018 0:00.747 2:30.983 5 46.4
8 10 Vlaanderen, Calvin NED Hon 35:46.357 13 0:44.908 0:08.890 2:31.546 9 46.3
9 14 Beaton, Jed AUS Hus 35:51.638 13 0:50.189 0:05.281 2:32.070 7 46.1
10 53 Walsh, Dylan NZL Hus 35:55.459 13 0:54.010 0:03.821 2:33.283 10 45.7
11 811 Sterry, Adam GBR Kaw 35:56.525 13 0:55.076 0:01.066 2:32.070 4 46.1
12 766 Sandner, Michael AUT KTM 35:57.890 13 0:56.441 0:01.365 2:32.515 11 46
13 98 Vaessen, Bas NED KTM 36:00.628 13 0:59.179 0:02.738 2:31.832 10 46.2
14 56 Pessoa, Gustavo BRA Kaw 36:04.788 13 1:03.339 0:04.160 2:33.029 11 45.8
15 161 Östlund, Alvin SWE Hus 36:06.231 13 1:04.782 0:01.443 2:32.741 12 45.9
16 193 Geerts, Jago BEL Yam 36:08.453 13 1:07.004 0:02.222 2:32.468 11 46
17 101 Pichon, Zachary FRA Hon 36:11.829 13 1:10.380 0:03.376 2:32.317 13 46
18 172 Boisrame, Mathys FRA Hon 36:13.401 13 1:11.952 0:01.572 2:32.151 5 46.1
19 102 Sikyna, Richard SVK KTM 36:14.890 13 1:13.441 0:01.489 2:33.095 12 45.8
20 275 Furbetta, Joakin ITA Hus 36:25.148 13 1:23.699 0:10.258 2:33.794 4 45.6
21 184 Bres, Natanael FRA Yam 36:30.010 13 1:28.561 0:04.862 2:33.879 10 45.6
22 44 Lesiardo, Morgan ITA KTM 36:36.650 13 1:35.201 0:06.640 2:35.318 7 45.1
23 313 Polak, Petr CZE KTM 36:38.295 13 1:36.846 0:01.645 2:34.821 9 45.3
24 253 Pancar, Jan SLO Yam 36:41.992 13 1:40.543 0:03.697 2:35.293 12 45.2
25 130 De Jong, Rene NED KTM 36:58.692 13 1:57.243 0:16.700 2:36.455 6 44.8
26 75 Roosiorg, Hardi EST KTM 37:01.800 13 2:00.351 0:03.108 2:34.794 13 45.3
27 88 van der Vlist, Freek NED KTM 37:03.273 13 2:01.824 0:01.473 2:35.517 7 45.1
28 931 Zanotti, Andrea SMR KTM 37:05.632 13 2:04.183 0:02.359 2:36.995 5 44.7
29 332 Conijn, Marcel NED Kaw 37:21.282 13 2:19.833 0:15.650 2:37.466 9 44.5
30 331 Freidig, Loris SUI Yam 37:32.312 13 2:30.863 0:11.030 2:39.357 4 44
31 959 Renaux, Maxime FRA Yam 33:07.099 12 1 lap 1 lap 2:31.136 12 46.4
32 783 Toriani, Enzo FRA Hus 35:07.029 12 1 lap 1:59.930 2:39.025 9 44.1
33 292 Gamboa Montero , Alex ESP Hus 35:12.138 12 1 lap 0:05.109 2:40.165 8 43.8
34 43 Evans, Mitchell AUS Hon 35:20.157 12 1 lap 0:08.019 2:30.342 10 46.6
35 57 Sanayei, Darian USA Kaw 31:52.219 11 2 laps 1 lap 2:32.161 8 46.1
36 50 Halmi, Hakan BUL KTM 31:21.386 10 3 laps 1 lap 2:39.415 9 44
37 11 Haarup, Mikkel DEN Hus 2:35.795 0 13 laps 10 laps 0:00.000   0
38 282 Kahrle, Hampus SWE Hus 0:00.000 -1 14 laps 1 lap 0:00.000   0

P. # MX2 Bateria 2 Nat. Bike Time laps Dif Gap M.V inlap Vel
1 19 Olsen, Thomas Kjer DEN Hus 37:10.022 14 0:00.000 0:00.000 2:27.224 3 47.6
2 10 Vlaanderen, Calvin NED Hon 37:19.958 14 0:09.936 0:09.936 2:28.366 5 47.3
3 29 Jacobi, Henry GER Kaw 37:26.057 14 0:16.035 0:06.099 2:28.396 12 47.3
4 28 Vialle, Tom FRA KTM 37:26.957 14 0:16.935 0:00.900 2:28.336 4 47.3
5 919 Watson, Ben GBR Yam 37:30.066 14 0:20.044 0:03.109 2:28.620 7 47.2
6 193 Geerts, Jago BEL Yam 37:48.657 14 0:38.635 0:18.591 2:28.733 5 47.1
7 46 Pootjes, Davy NED Hus 37:53.599 14 0:43.577 0:04.942 2:30.573 5 46.6
8 43 Evans, Mitchell AUS Hon 37:56.290 14 0:46.268 0:02.691 2:30.179 11 46.7
9 747 Cervellin, Michele ITA Yam 38:04.787 14 0:54.765 0:08.497 2:30.720 13 46.5
10 53 Walsh, Dylan NZL Hus 38:09.942 14 0:59.920 0:05.155 2:30.165 4 46.7
11 172 Boisrame, Mathys FRA Hon 38:12.410 14 1:02.388 0:02.468 2:30.041 5 46.7
12 98 Vaessen, Bas NED KTM 38:14.353 14 1:04.331 0:01.943 2:31.688 14 46.2
13 14 Beaton, Jed AUS Hus 38:23.320 14 1:13.298 0:08.967 2:32.422 4 46
14 161 Östlund, Alvin SWE Hus 38:25.363 14 1:15.341 0:02.043 2:32.188 4 46.1
15 811 Sterry, Adam GBR Kaw 38:27.237 14 1:17.215 0:01.874 2:31.388 7 46.3
16 766 Sandner, Michael AUT KTM 38:27.750 14 1:17.728 0:00.513 2:32.536 3 46
17 102 Sikyna, Richard SVK KTM 38:28.807 14 1:18.785 0:01.057 2:32.226 5 46.1
18 959 Renaux, Maxime FRA Yam 38:36.762 14 1:26.740 0:07.955 2:32.291 13 46
19 57 Sanayei, Darian USA Kaw 38:46.433 14 1:36.411 0:09.671 2:32.366 8 46
20 313 Polak, Petr CZE KTM 38:49.497 14 1:39.475 0:03.064 2:34.330 14 45.4
21 88 van der Vlist, Freek NED KTM 38:51.456 14 1:41.434 0:01.959 2:32.539 12 46
22 783 Toriani, Enzo FRA Hus 38:56.052 14 1:46.030 0:04.596 2:33.954 12 45.5
23 253 Pancar, Jan SLO Yam 39:00.289 14 1:50.267 0:04.237 2:33.488 10 45.7
24 44 Lesiardo, Morgan ITA KTM 39:05.173 14 1:55.151 0:04.884 2:34.584 3 45.4
25 56 Pessoa, Gustavo BRA Kaw 39:06.986 14 1:56.964 0:01.813 2:33.653 2 45.6
26 75 Roosiorg, Hardi EST KTM 39:09.505 14 1:59.483 0:02.519 2:34.241 5 45.5
27 282 Kahrle, Hampus SWE Hus 39:15.356 14 2:05.334 0:05.851 2:35.452 8 45.1
28 931 Zanotti, Andrea SMR KTM 39:19.992 14 2:09.970 0:04.636 2:34.863 14 45.3
29 275 Furbetta, Joakin ITA Hus 39:20.434 14 2:10.412 0:00.442 2:33.149 14 45.8
30 130 De Jong, Rene NED KTM 39:28.854 14 2:18.832 0:08.420 2:35.388 4 45.1
31 331 Freidig, Loris SUI Yam 39:31.975 14 2:21.953 0:03.121 2:35.774 9 45
32 332 Conijn, Marcel NED Kaw 37:15.134 13 1 lap 1 lap 2:36.516 3 44.8
33 101 Pichon, Zachary FRA Hon 35:12.396 12 2 laps 1 lap 2:31.826 4 46.2
34 426 Mewse, Conrad GBR KTM 30:43.775 11 3 laps 1 lap 2:31.357 10 46.3
35 184 Bres, Natanael FRA Yam 22:01.717 7 7 laps 4 laps 2:39.200 3 44

Resultado do GP
1. Thomas Kjer Olsen, 50
2. Jacobi Henry, 42
3. Tom Vialle, 38
4. Calvin Vlaanderen, 35
5. Ben Watson, 34
...
18. Gustavo Pessoa, 7






Curso MotoX
JPS Racing

© 2000 - 2018 MotoX MX1 Internet